Regional Weather Roundup
Issued by NWS Upton, NY

Current Version | Previous Version | Text Only | Print | Product List | Glossary On
Versions: 1 2 3 4 5 6 7 8 9 10 11 12 13 14 15 16 17 18 19 20 21 22 23 24 25 26 27 28 29 30 31 32 33 34 35 36 37 38 39 40 41 42 43 44 45 46 47 48 49 50
933
ASUS41 KOKX 270904
RWROKX

REGIONAL WEATHER ROUNDUP
NATIONAL WEATHER SERVICE NEW YORK NY
500 AM EDT WED JUL 27 2016

NOTE: "FAIR" INDICATES FEW OR NO CLOUDS BELOW 12,000 FEET WITH NO
SIGNIFICANT WEATHER AND/OR OBSTRUCTIONS TO VISIBILITY.

NYZ071-072-176-178-NJZ106-104-271000-
NEW YORK CITY METRO AREA

CITY           SKY/WX    TMP DP  RH WIND       PRES   REMARKS
Central Park   PTCLDY    75  63  66 CALM      29.97R
LaGuardia APRT MOCLDY    78  64  61 NE5       29.93S
Kennedy INTL   MOCLDY    76  61  59 N6        29.95R
Newark/Liberty CLOUDY    74  63  68 N6        29.93S
Bronx Bot Gard   N/A     73  63  68 E2        29.96R
Wall St Helipt CLOUDY    79  66  65 NE3       29.94S
Teterboro      PTCLDY    73  62  68 CALM      29.93S
$$

NYZ177-179-078>081-271000-
LONG ISLAND NEW YORK

CITY           SKY/WX    TMP DP  RH WIND       PRES   REMARKS
Farmingdale    CLEAR     72  63  73 MISG      29.94R
MacArthur/ISP  PTCLDY    70  64  81 N6        29.93R
Shirley        PTCLDY    69  63  81 N5        29.94R
Riverhead      NOT AVBL
Westhampton    CLEAR     64  61  90 CALM      29.95R
Southhampton     N/A     72  64  78 N3        29.89R
Bridgehampton    N/A     68  64  88 CALM      29.92R
East Hampton   FAIR      67  63  88 CALM      29.92R
Montauk          N/A     69  64  84 CALM      29.93R
$$

NYZ052-065-067-271000-
HUDSON VALLEY

CITY           SKY/WX    TMP DP  RH WIND       PRES   REMARKS
White Plains   PTCLDY    67  61  81 NW6       29.94S
Newburgh       PTCLDY    63  63 100 CALM      29.97S
Montgomery     CLEAR     61  60  97 CALM      29.96S
Poughkeepsie   CLEAR     63  60  90 CALM      29.95R
Albany         PTCLDY    66  59  78 S3        29.94F
$$

NJZ001-105-106-008-010-013-015-019>022-104-271000-
NEW JERSEY

CITY           SKY/WX    TMP DP  RH WIND       PRES   REMARKS
Newark/Liberty CLOUDY    74  63  68 N6        29.93S
Teterboro      PTCLDY    73  62  68 CALM      29.93S
Caldwell       CLOUDY    70  64  81 CALM      29.95S
Morristown     CLOUDY    63  61  94 CALM      29.95S
Somerville     CLOUDY    67  65  93 CALM      29.93S
Linden         FAIR      74  62  64 CALM      29.96R
Sussex         PTCLDY    61  61 100 CALM      29.97S
Abdover          N/A     63  62  97 CALM      29.97S
Trenton        CLOUDY    73  63  70 N5        29.94S
Millville      MOCLDY    77  74  90 CALM      29.93R
Atlantic City  CLOUDY    75  71  87 CALM      29.93R
Wrightstown    CLOUDY    72  67  83 CALM      29.91S
Toms River     CLOUDY    69  67  93 CALM      29.94S
Belmar         CLOUDY    75  64  68 N3        29.95S
$$

PAZ047>061-062-071-271000-
EASTERN PENNSYLVANIA

CITY           SKY/WX    TMP DP  RH WIND       PRES   REMARKS
Philadelphia   CLOUDY    78  66  66 NE6       29.93S
Allentown      PTCLDY    69  63  81 CALM      29.96S
Scranton       PTCLDY    64  60  87 E8        29.99S
$$

CTZ002-004>006-009-010-012-RIZ004-006-007-MAZ004-011-015-271000-
SOUTHERN NEW ENGLAND
 IN CT

CITY           SKY/WX    TMP DP  RH WIND       PRES   REMARKS
Bradley INTL   CLEAR     65  60  84 W3        29.92R
Hartford       CLEAR     71  65  81 CALM      29.92S
Danbury        CLEAR     62  59  90 SW6       29.97R
Wtrbury/Oxford   N/A     64  57  77 CALM      29.96R
Bridgeport     CLEAR     73  61  65 N3        29.93R
Meriden        CLEAR     65  61  87 CALM      29.93R
New Haven      CLEAR     71  62  73 CALM      29.93R
Chester        FAIR      70  63  78 CALM      29.94R
Groton         CLEAR     70  62  76 CALM      29.91R
Wilimantic     NOT AVBL

 IN RI

CITY           SKY/WX    TMP DP  RH WIND       PRES   REMARKS
Providence     CLEAR     71  61  70 CALM      29.91S
Block Island   CLEAR     70  63  78 NW6       29.93R
Westerly       CLEAR     67  60  78 CALM      29.92R
 IN MA

CITY           SKY/WX    TMP DP  RH WIND       PRES   REMARKS
Boston         CLEAR     75  60  59 NW10      29.90R
Worchester     CLEAR     67  57  70 NW7       29.95S
Westfield      CLEAR     66  60  81 CALM      29.93S
Provincetown   CLEAR     70  66  87 NW3       29.90R
Nantucket      CLEAR     72  65  78 N8        29.89R
$$

ANZ330-335-338-340-345-350-353-355-271000-
COASTAL MARINE OBSERVATIONS


STATION/POSITION TIME  SKY/WX   TEMP    WIND        PRES    VSBY  WAVE
                                AIR SEA DIR/SP/G                  HT/PER
                 (UTC)          (F)     (DEG/KT/KT) (MB)    (MI)  (FT/S)
NY HARB ENTRANCE 0750            75 75  340/  4/  4 1013.2          2/ 6
20S FIRE ISLAND  0750            76 76   10/  8/  8 1012.7          3/ 7
GREAT SOUTH BAY  0800            76 81  330/  6/  8   N/A
23 SSW MONTAUK P 0750            71 70  320/  6/  6 1013.1          3/ 7
15 E BARNEGAT LI 0822               77                N/A           2/ 6
HUDSON CANYON    0750            78 78              1012.8          2/ 6
KINGS POINT      0800            72 73              1013.5
EXECUTION ROCKS  0800            73     230/  2/  2   N/A
CENTRAL LI SOUND 0815            74 73  360/  6/  8   N/A           0
EASTERN LI SOUND 0800            71 68  270/  2/  4   N/A
ROBBINS REEF     0812            77     350/  6/  7 1013.0
$$


>>>>>>>>>>>>>>>>>>>>>>>>>>>> KEY <<<<<<<<<<<<<<<<<<<<<<<<<<<
>                                                          <
>     SKY/WX - Sky Condition/Present Weather               <
>     TMP    - Temperature in Fahrenheit                   <
>     DP     - Dew Point in Fahrenheit                     <
>     RH     - Relative Humidity in Percent                <
>     WIND   - Direction (from) and Speed in MPH           <
>     PRES   - Mean Sea Level Pressure (inches of Hg)      <
>     WCI    - Wind Chill Index                            <
>     VSB    - VISIBILITY IN MILES                         <
>     HX     - HEAT INDEX                                  <
>     TC     - TEMPERATURE IN CELSIUS                      <
>     VRB    - VARIABLE WIND DIRECTION                     <
>                                                          <
>>>>>>>>>>>>>>>>>>>>>>>>>>>> KEY <<<<<<<<<<<<<<<<<<<<<<<<<<<




USA.gov is the U.S. government's official web portal to all federal, state and local government web resources and services.